This is the latest recevied weather packets stored in our database for station/object ED3YAB-7. If no packets are shown the sender has not sent any weather packets the latest 10 day(s).
| Time | Temp. | Humidity | Pressure | Rain* | Wind** | Luminosity | Snow |
|---|---|---|---|---|---|---|---|
| 1777971321 | 15.56° C | 54% | 1017 hPa | - | - | - | - |
| 1777970121 | 15.56° C | 54% | 1017.5 hPa | - | - | - | - |
| 1777968921 | 15.56° C | 53% | 1017.4 hPa | - | - | - | - |
| 1777967729 | 15.56° C | 54% | 1017 hPa | - | - | - | - |
| 1777967720 | 15.56° C | 54% | 1017 hPa | - | - | - | - |
| 1777965340 | 14.44° C | 58% | 1017.4 hPa | - | - | - | - |
| 1777965329 | 14.44° C | 58% | 1017.4 hPa | - | - | - | - |
| 1777964130 | 13.33° C | 61% | 1017.5 hPa | - | - | - | - |
| 1777964123 | 13.33° C | 61% | 1017.5 hPa | - | - | - | - |
| 1777962924 | 11.67° C | 64% | 1017.5 hPa | - | - | - | - |
| 1777962917 | 11.67° C | 64% | 1017.5 hPa | - | - | - | - |
| 1777961717 | 12.22° C | 64% | 1017.3 hPa | - | - | - | - |
| 1777960517 | 12.22° C | 65% | 1017.6 hPa | - | - | - | - |
| 1777959317 | 11.11° C | 68% | 1017.6 hPa | - | - | - | - |
| 1777958116 | 10.56° C | 69% | 1017.6 hPa | - | - | - | - |
| 1777956916 | 10° C | 70% | 1017.4 hPa | - | - | - | - |
| 1777955716 | 10.56° C | 70% | 1017.5 hPa | - | - | - | - |
| 1777954516 | 9.44° C | 71% | 1017.7 hPa | - | - | - | - |
| 1777952116 | 10.56° C | 71% | 1017.6 hPa | - | - | - | - |
| 1777950918 | 10.56° C | 71% | 1017.5 hPa | - | - | - | - |
| 1777949717 | 10.56° C | 70% | 1017.5 hPa | - | - | - | - |
| 1777948517 | 11.11° C | 69% | 1017.4 hPa | - | - | - | - |
| 1777947317 | 11.11° C | 69% | 1017.5 hPa | - | - | - | - |
| 1777946117 | 11.11° C | 69% | 1017.5 hPa | - | - | - | - |
| 1777942523 | 11.67° C | 69% | 1017.6 hPa | - | - | - | - |
* Rain since midnight (hover to see other rain measurements)
** Current wind speed in m/s (hover to see current wind gust speed)